RH
30 30 27 22 24 20 40 25 10 6 6 7 8 10 12 13 15 17 18 20 23 34 80 93 97 100 100
30 28 25 21 21 41 32 17 8 7 8 8 10 13 15 16 17 19 20 23 25 28 70 51 77 98 100
28 27 21 26 31 40 26 14 8 8 9 10 13 15 17 18 20 21 22 26 27 28 32 54 96 100 100
26 23 25 24 45 36 21 10 8 10 10 12 14 16 18 21 23 23 24 27 29 34 73 100 100 99 100
26 24 24 43 42 30 14 9 9 11 12 13 16 18 19 22 24 25 28 31 35 47 97 99 98 100 100
25 24 38 44 39 24 11 10 10 11 14 16 18 20 21 25 26 28 33 34 36 42 62 93 92 98 100
23 32 45 45 34 21 10 10 10 12 14 17 19 21 22 27 27 28 32 33 34 37 39 54 74 55 72
27 43 47 43 29 13 11 11 11 14 16 17 19 19 21 28 28 28 32 33 33 34 35 38 46 44 40
41 44 47 36 14 13 12 12 14 16 22 23 24 19 19 22 27 27 28 24 22 20 18 18 22 36 39
46 51 55 30 21 13 14 14 18 20 26 28 33 35 27 18 21 22 19 20 17 17 17 18 18 27 44
52 81 78 49 16 16 16 18 23 27 31 32 35 40 43 38 18 21 22 16 14 14 16 18 20 27 50
86 85 78 34 16 18 20 23 25 29 33 34 37 45 47 37 29 21 18 16 18 20 18 17 19 25 45
89 79 56 26 18 20 23 26 29 31 32 34 37 39 42 44 38 24 27 19 25 23 21 19 19 25 40
87 95 51 20 21 21 24 28 30 32 32 32 35 37 30 28 26 21 24 38 25 23 22 21 19 23 40
97 45 27 69 30 25 29 32 33 33 30 31 30 27 26 26 23 24 28 26 25 23 22 21 18 21 30
46 49 89 38 28 32 33 34 35 36 31 31 27 22 19 16 24 29 22 23 23 22 26 28 22 20 23
89 83 36 30 34 35 36 38 39 35 30 32 30 28 25 24 18 22 25 22 24 24 26 30 31 23 23
Wind_Speed
6 6 5 3 2 5 9 11 11 11 12 13 14 15 16 18 20 21 22 24 25 25 24 25 25 25 27
6 7 6 3 2 6 9 10 10 10 11 12 13 14 15 17 18 21 23 24 24 25 25 26 26 26 27
8 8 6 3 2 6 8 9 9 9 11 12 12 13 14 16 18 20 21 23 23 24 25 25 25 25 26
8 8 7 4 3 6 7 7 7 7 11 11 12 13 14 15 18 19 21 23 24 25 25 24 26 27 28
10 8 7 4 4 5 6 7 6 6 8 9 10 12 14 14 17 20 22 24 26 27 25 25 26 27 28
10 9 6 5 4 5 5 5 5 6 7 8 9 12 17 14 19 22 21 24 25 26 26 26 27 28 29
9 9 6 4 4 5 4 4 5 6 6 7 10 12 17 12 19 22 22 23 25 26 27 27 28 30 31
10 7 4 3 4 4 4 4 5 5 7 10 13 13 16 11 18 20 22 24 25 26 28 29 30 31 31
10 7 2 3 1 4 4 4 6 7 8 13 16 18 16 15 18 19 21 23 25 26 28 31 33 32 31
11 6 2 2 5 3 4 4 5 7 9 14 17 21 15 18 18 20 23 24 26 28 29 32 35 34 32
10 5 3 3 5 3 3 4 5 8 11 14 17 19 20 25 23 24 26 28 29 31 33 33 34 31 30
7 4 2 4 5 4 3 4 6 8 10 14 16 18 19 23 27 28 27 29 30 35 35 34 34 33 25
5 2 5 7 6 4 3 5 6 8 10 12 13 15 18 20 25 28 32 32 33 34 36 35 36 36 35
8 10 9 8 4 6 5 5 7 9 11 12 13 15 18 19 22 24 25 28 35 35 38 38 36 33 30
11 9 8 6 9 7 5 6 8 10 11 11 13 15 18 21 20 23 27 30 32 35 38 41 36 35 33
11 12 10 10 9 6 5 7 8 10 11 13 16 19 22 23 22 25 28 31 33 35 35 39 40 35 34
12 11 10 10 7 6 7 8 9 10 10 12 16 20 25 28 27 25 30 31 34 36 34 36 38 37 35
Wind_Direction
199 205 213 221 303 340 344 344 349 346 351 352 352 354 352 353 355 355 354 351 348 346 346 344 342 338 337
207 208 205 216 299 340 338 340 343 341 349 348 349 352 352 352 356 356 355 354 350 347 347 347 342 341 340
216 207 203 215 291 322 331 335 334 338 346 349 347 353 354 359 360 358 356 356 354 350 349 349 344 340 339
213 201 200 218 284 318 326 327 325 335 344 348 349 355 356 2 0 359 358 358 357 354 351 346 342 342 340
214 208 203 227 283 311 313 308 328 329 342 351 352 356 357 358 355 356 357 355 353 349 345 343 342 340 338
212 212 213 234 283 304 302 309 330 332 349 354 354 354 358 354 354 355 353 351 350 348 345 344 342 340 338
222 215 219 252 301 300 299 307 325 333 340 355 356 355 355 356 352 349 350 350 349 349 347 347 345 342 340
214 217 225 300 305 296 302 313 324 333 339 352 347 0 358 358 351 349 351 351 352 348 346 346 346 344 343
202 199 242 294 283 316 311 318 337 342 346 350 348 350 3 0 356 352 355 356 354 353 354 349 345 340 341
196 194 249 245 318 290 294 329 347 344 346 344 347 347 351 1 4 359 360 358 353 352 356 352 350 343 339
183 212 260 325 276 267 297 329 350 350 338 341 341 340 342 342 2 0 353 353 352 351 354 351 350 347 338
206 242 308 251 237 249 285 323 336 338 333 331 333 335 340 344 343 351 349 352 353 351 347 349 349 349 344
233 278 249 229 228 244 290 319 325 330 327 326 330 335 342 339 338 347 343 348 353 347 345 349 350 350 343
263 247 216 210 227 257 275 298 318 322 326 331 335 338 337 345 342 341 345 342 345 346 342 346 349 351 345
226 195 191 215 239 244 268 305 317 322 327 328 332 333 335 342 344 348 345 344 342 343 343 339 346 349 346
186 201 206 226 232 247 276 299 315 321 327 330 332 332 334 342 351 348 345 342 341 342 341 339 340 350 346
208 192 214 227 237 258 282 300 311 318 323 329 331 333 337 337 340 357 342 343 338 337 341 339 339 345 347